Year,Month,Day,Hour,Minute,Value (Times are PST for temperature in C)
2014,08,04,00,00,18.40
2014,08,04,00,01,18.40
2014,08,04,00,02,18.40
2014,08,04,00,03,18.40
2014,08,04,00,04,18.30
2014,08,04,00,05,18.30
2014,08,04,00,06,18.30
2014,08,04,00,07,18.30
2014,08,04,00,08,18.30
2014,08,04,00,09,18.20
2014,08,04,00,10,18.20
2014,08,04,00,11,18.20
2014,08,04,00,12,18.20
2014,08,04,00,13,18.20
2014,08,04,00,14,18.20
2014,08,04,00,15,18.10
2014,08,04,00,16,18.10
2014,08,04,00,17,18.10
2014,08,04,00,18,18.10
2014,08,04,00,19,18.00
2014,08,04,00,20,18.00
2014,08,04,00,21,18.00
2014,08,04,00,22,17.90
2014,08,04,00,23,17.90
2014,08,04,00,24,17.90
2014,08,04,00,25,17.90
2014,08,04,00,26,17.80
2014,08,04,00,27,17.80
2014,08,04,00,28,17.80
2014,08,04,00,29,17.80
2014,08,04,00,30,17.80
2014,08,04,00,31,17.80
2014,08,04,00,32,17.80
2014,08,04,00,33,17.80
2014,08,04,00,34,17.80
2014,08,04,00,35,17.80
2014,08,04,00,36,17.80
2014,08,04,00,37,17.80
2014,08,04,00,38,17.80
2014,08,04,00,39,17.80
2014,08,04,00,40,17.80
2014,08,04,00,41,17.80
2014,08,04,00,42,17.70
2014,08,04,00,43,17.70
2014,08,04,00,44,17.70
2014,08,04,00,45,17.70
2014,08,04,00,46,17.70
2014,08,04,00,47,17.70
2014,08,04,00,48,17.70
2014,08,04,00,49,17.60
2014,08,04,00,50,17.60
2014,08,04,00,51,17.60
2014,08,04,00,52,17.60
2014,08,04,00,53,17.60
2014,08,04,00,54,17.60
2014,08,04,00,55,17.50
2014,08,04,00,56,17.50
2014,08,04,00,57,17.50
2014,08,04,00,58,17.40
2014,08,04,00,59,17.40
2014,08,04,01,00,17.40
2014,08,04,01,01,17.30
2014,08,04,01,02,17.30
2014,08,04,01,03,17.30
2014,08,04,01,04,17.20
2014,08,04,01,05,17.20
2014,08,04,01,06,17.20
2014,08,04,01,07,17.10
2014,08,04,01,08,17.10
2014,08,04,01,09,17.10
2014,08,04,01,10,17.00
2014,08,04,01,11,17.00
2014,08,04,01,12,16.90
2014,08,04,01,13,16.90
2014,08,04,01,14,16.90
2014,08,04,01,15,16.90
2014,08,04,01,16,16.80
2014,08,04,01,17,16.80
2014,08,04,01,18,16.80
2014,08,04,01,19,16.70
2014,08,04,01,20,16.70
2014,08,04,01,21,16.70
2014,08,04,01,22,16.70
2014,08,04,01,23,16.60
2014,08,04,01,24,16.60
2014,08,04,01,25,16.60
2014,08,04,01,26,16.60
2014,08,04,01,27,16.60
2014,08,04,01,28,16.50
2014,08,04,01,29,16.50
2014,08,04,01,30,16.50
2014,08,04,01,31,16.40
2014,08,04,01,32,16.40
2014,08,04,01,33,16.40
2014,08,04,01,34,16.40
2014,08,04,01,35,16.30
2014,08,04,01,36,16.30
2014,08,04,01,37,16.30
2014,08,04,01,38,16.30
2014,08,04,01,39,16.30
2014,08,04,01,40,16.30
2014,08,04,01,41,16.20
2014,08,04,01,42,16.20
2014,08,04,01,43,16.20
2014,08,04,01,44,16.20
2014,08,04,01,45,16.20
2014,08,04,01,46,16.20
2014,08,04,01,47,16.20
2014,08,04,01,48,16.20
2014,08,04,01,49,16.20
2014,08,04,01,50,16.20
2014,08,04,01,51,16.10
2014,08,04,01,52,16.10
2014,08,04,01,53,16.10
2014,08,04,01,54,16.10
2014,08,04,01,55,16.10
2014,08,04,01,56,16.10
2014,08,04,01,57,16.00
2014,08,04,01,58,16.00
2014,08,04,01,59,16.00
2014,08,04,02,00,16.00
2014,08,04,02,01,15.90
2014,08,04,02,02,15.90
2014,08,04,02,03,15.90
2014,08,04,02,04,15.80
2014,08,04,02,05,15.80
2014,08,04,02,06,15.80
2014,08,04,02,07,15.80
2014,08,04,02,08,15.80
2014,08,04,02,09,15.80
2014,08,04,02,10,15.80
2014,08,04,02,11,15.70
2014,08,04,02,12,15.70
2014,08,04,02,13,15.70
2014,08,04,02,14,15.70
2014,08,04,02,15,15.70
2014,08,04,02,16,15.70
2014,08,04,02,17,15.70
2014,08,04,02,18,15.70
2014,08,04,02,19,15.60
2014,08,04,02,20,15.60
2014,08,04,02,21,15.60
2014,08,04,02,22,15.60
2014,08,04,02,23,15.60
2014,08,04,02,24,15.60
2014,08,04,02,25,15.60
2014,08,04,02,26,15.60
2014,08,04,02,27,15.60
2014,08,04,02,28,15.60
2014,08,04,02,29,15.60
2014,08,04,02,30,15.50
2014,08,04,02,31,15.50
2014,08,04,02,32,15.50
2014,08,04,02,33,15.40
2014,08,04,02,34,15.40
2014,08,04,02,35,15.40
2014,08,04,02,36,15.40
2014,08,04,02,37,15.40
2014,08,04,02,38,15.40
2014,08,04,02,39,15.30
2014,08,04,02,40,15.30
2014,08,04,02,41,15.30
2014,08,04,02,42,15.30
2014,08,04,02,43,15.30
2014,08,04,02,44,15.30
2014,08,04,02,45,15.30
2014,08,04,02,46,15.20
2014,08,04,02,47,15.20
2014,08,04,02,48,15.20
2014,08,04,02,49,15.20
2014,08,04,02,50,15.20
2014,08,04,02,51,15.20
2014,08,04,02,52,15.10
2014,08,04,02,53,15.10
2014,08,04,02,54,15.10
2014,08,04,02,55,15.10
2014,08,04,02,56,15.00
2014,08,04,02,57,15.00
2014,08,04,02,58,15.00
2014,08,04,02,59,15.00
2014,08,04,03,00,15.00
2014,08,04,03,01,15.00
2014,08,04,03,02,15.00
2014,08,04,03,03,15.00
2014,08,04,03,04,15.00
2014,08,04,03,05,15.00
2014,08,04,03,06,15.00
2014,08,04,03,07,15.00
2014,08,04,03,08,15.00
2014,08,04,03,09,15.00
2014,08,04,03,10,15.00
2014,08,04,03,11,15.00
2014,08,04,03,12,15.00
2014,08,04,03,13,15.00
2014,08,04,03,14,15.00
2014,08,04,03,15,15.00
2014,08,04,03,16,15.00
2014,08,04,03,17,15.00
2014,08,04,03,18,15.00
2014,08,04,03,19,15.00
2014,08,04,03,20,15.00
2014,08,04,03,21,15.00
2014,08,04,03,22,15.00
2014,08,04,03,23,15.00
2014,08,04,03,24,15.00
2014,08,04,03,25,15.00
2014,08,04,03,26,15.00
2014,08,04,03,27,15.00
2014,08,04,03,28,15.00
2014,08,04,03,29,14.90
2014,08,04,03,30,14.90
2014,08,04,03,31,14.90
2014,08,04,03,32,14.90
2014,08,04,03,33,14.90
2014,08,04,03,34,14.90
2014,08,04,03,35,14.90
2014,08,04,03,36,14.90
2014,08,04,03,37,14.80
2014,08,04,03,38,14.80
2014,08,04,03,39,14.80
2014,08,04,03,40,14.80
2014,08,04,03,41,14.80
2014,08,04,03,42,14.80
2014,08,04,03,43,14.70
2014,08,04,03,44,14.70
2014,08,04,03,45,14.70
2014,08,04,03,46,14.70
2014,08,04,03,47,14.60
2014,08,04,03,48,14.60
2014,08,04,03,49,14.60
2014,08,04,03,50,14.50
2014,08,04,03,51,14.50
2014,08,04,03,52,14.50
2014,08,04,03,53,14.40
2014,08,04,03,54,14.40
2014,08,04,03,55,14.40
2014,08,04,03,56,14.40
2014,08,04,03,57,14.30
2014,08,04,03,58,14.30
2014,08,04,03,59,14.30
2014,08,04,04,00,14.30
2014,08,04,04,01,14.30
2014,08,04,04,02,14.30
2014,08,04,04,03,14.30
2014,08,04,04,04,14.30
2014,08,04,04,05,14.30
2014,08,04,04,06,14.30
2014,08,04,04,07,14.30
2014,08,04,04,08,14.20
2014,08,04,04,09,14.20
2014,08,04,04,10,14.20
2014,08,04,04,11,14.20
2014,08,04,04,12,14.20
2014,08,04,04,13,14.20
2014,08,04,04,14,14.20
2014,08,04,04,15,14.20
2014,08,04,04,16,14.10
2014,08,04,04,17,14.10
2014,08,04,04,18,14.10
2014,08,04,04,19,14.10
2014,08,04,04,20,14.10
2014,08,04,04,21,14.10
2014,08,04,04,22,14.10
2014,08,04,04,23,14.00
2014,08,04,04,24,14.00
2014,08,04,04,25,14.00
2014,08,04,04,26,13.90
2014,08,04,04,27,13.90
2014,08,04,04,28,13.90
2014,08,04,04,29,13.90
2014,08,04,04,30,13.90
2014,08,04,04,31,13.90
2014,08,04,04,32,13.90
2014,08,04,04,33,13.90
2014,08,04,04,34,13.80
2014,08,04,04,35,13.80
2014,08,04,04,36,13.80
2014,08,04,04,37,13.80
2014,08,04,04,38,13.80
2014,08,04,04,39,13.80
2014,08,04,04,40,13.80
2014,08,04,04,41,13.80
2014,08,04,04,42,13.70
2014,08,04,04,43,13.70
2014,08,04,04,44,13.70
2014,08,04,04,45,13.70
2014,08,04,04,46,13.70
2014,08,04,04,47,13.70
2014,08,04,04,48,13.70
2014,08,04,04,49,13.70
2014,08,04,04,50,13.60
2014,08,04,04,51,13.60
2014,08,04,04,52,13.60
2014,08,04,04,53,13.60
2014,08,04,04,54,13.60
2014,08,04,04,55,13.60
2014,08,04,04,56,13.60
2014,08,04,04,57,13.50
2014,08,04,04,58,13.50
2014,08,04,04,59,13.50
2014,08,04,05,00,13.50
2014,08,04,05,01,13.40
2014,08,04,05,02,13.40
2014,08,04,05,03,13.40
2014,08,04,05,04,13.40
2014,08,04,05,05,13.40
2014,08,04,05,06,13.40
2014,08,04,05,07,13.40
2014,08,04,05,08,13.40
2014,08,04,05,09,13.40
2014,08,04,05,10,13.40
2014,08,04,05,11,13.40
2014,08,04,05,12,13.40
2014,08,04,05,13,13.40
2014,08,04,05,14,13.40
2014,08,04,05,15,13.30
2014,08,04,05,16,13.30
2014,08,04,05,17,13.30
2014,08,04,05,18,13.30
2014,08,04,05,19,13.30
2014,08,04,05,20,13.30
2014,08,04,05,21,13.30
2014,08,04,05,22,13.30
2014,08,04,05,23,13.30
2014,08,04,05,24,13.30
2014,08,04,05,25,13.30
2014,08,04,05,26,13.30
2014,08,04,05,27,13.30
2014,08,04,05,28,13.30
2014,08,04,05,29,13.20
2014,08,04,05,30,13.20
2014,08,04,05,31,13.30
2014,08,04,05,32,13.30
2014,08,04,05,33,13.30
2014,08,04,05,34,13.20
2014,08,04,05,35,13.20
2014,08,04,05,36,13.20
2014,08,04,05,37,13.20
2014,08,04,05,38,13.20
2014,08,04,05,39,13.20
2014,08,04,05,40,13.20
2014,08,04,05,41,13.10
2014,08,04,05,42,13.10
2014,08,04,05,43,13.10
2014,08,04,05,44,13.10
2014,08,04,05,45,13.10
2014,08,04,05,46,13.10
2014,08,04,05,47,13.10
2014,08,04,05,48,13.10
2014,08,04,05,49,13.10
2014,08,04,05,50,13.10
2014,08,04,05,51,13.10
2014,08,04,05,52,13.10
2014,08,04,05,53,13.10
2014,08,04,05,54,13.00
2014,08,04,05,55,13.00
2014,08,04,05,56,13.00
2014,08,04,05,57,12.90
2014,08,04,05,58,12.90
2014,08,04,05,59,12.90
2014,08,04,06,00,12.90
2014,08,04,06,01,12.90
2014,08,04,06,02,12.90
2014,08,04,06,03,12.90
2014,08,04,06,04,12.90
2014,08,04,06,05,12.80
2014,08,04,06,06,12.80
2014,08,04,06,07,12.80
2014,08,04,06,08,12.80
2014,08,04,06,09,12.80
2014,08,04,06,10,12.80
2014,08,04,06,11,12.80
2014,08,04,06,12,12.80
2014,08,04,06,13,12.80
2014,08,04,06,14,12.80
2014,08,04,06,15,12.80
2014,08,04,06,16,12.80
2014,08,04,06,17,12.80
2014,08,04,06,18,12.80
2014,08,04,06,19,12.80
2014,08,04,06,20,12.80
2014,08,04,06,21,12.80
2014,08,04,06,22,12.80
2014,08,04,06,23,12.80
2014,08,04,06,24,12.80
2014,08,04,06,25,12.80
2014,08,04,06,26,12.80
2014,08,04,06,27,12.80
2014,08,04,06,28,12.80
2014,08,04,06,29,12.80
2014,08,04,06,30,12.80
2014,08,04,06,31,12.80
2014,08,04,06,32,12.80
2014,08,04,06,33,12.80
2014,08,04,06,34,12.80
2014,08,04,06,35,12.80
2014,08,04,06,36,12.80
2014,08,04,06,37,12.80
2014,08,04,06,38,12.80
2014,08,04,06,39,12.80
2014,08,04,06,40,12.80
2014,08,04,06,41,12.80
2014,08,04,06,42,12.80
2014,08,04,06,43,12.80
2014,08,04,06,44,12.80
2014,08,04,06,45,12.80
2014,08,04,06,46,12.80
2014,08,04,06,47,12.80
2014,08,04,06,48,12.80
2014,08,04,06,49,12.80
2014,08,04,06,50,12.80
2014,08,04,06,51,12.80
2014,08,04,06,52,12.80
2014,08,04,06,53,12.80
2014,08,04,06,54,12.80
2014,08,04,06,55,12.80
2014,08,04,06,56,12.80
2014,08,04,06,57,12.80
2014,08,04,06,58,12.80
2014,08,04,06,59,12.80
2014,08,04,07,00,12.80
2014,08,04,07,01,12.80
2014,08,04,07,02,12.80
2014,08,04,07,03,12.80
2014,08,04,07,04,12.80
2014,08,04,07,05,12.80
2014,08,04,07,06,12.80
2014,08,04,07,07,12.80
2014,08,04,07,08,12.80
2014,08,04,07,09,12.80
2014,08,04,07,10,12.80
2014,08,04,07,11,12.80
2014,08,04,07,12,12.80
2014,08,04,07,13,12.80
2014,08,04,07,14,12.80
2014,08,04,07,15,12.80
2014,08,04,07,16,12.80
2014,08,04,07,17,12.90
2014,08,04,07,18,12.90
2014,08,04,07,19,12.90
2014,08,04,07,20,12.90
2014,08,04,07,21,12.90
2014,08,04,07,22,13.00
2014,08,04,07,23,13.00
2014,08,04,07,24,13.00
2014,08,04,07,25,13.10
2014,08,04,07,26,13.10
2014,08,04,07,27,13.10
2014,08,04,07,28,13.20
2014,08,04,07,29,13.20
2014,08,04,07,30,13.20
2014,08,04,07,31,13.20
2014,08,04,07,32,13.30
2014,08,04,07,33,13.30
2014,08,04,07,34,13.40
2014,08,04,07,35,13.40
2014,08,04,07,36,13.50
2014,08,04,07,37,13.50
2014,08,04,07,38,13.60
2014,08,04,07,39,13.60
2014,08,04,07,40,13.60
2014,08,04,07,41,13.70
2014,08,04,07,42,13.70
2014,08,04,07,43,13.80
2014,08,04,07,44,13.80
2014,08,04,07,45,13.80
2014,08,04,07,46,13.90
2014,08,04,07,47,13.90
2014,08,04,07,48,14.00
2014,08,04,07,49,14.10
2014,08,04,07,50,14.10
2014,08,04,07,51,14.20
2014,08,04,07,52,14.20
2014,08,04,07,53,14.20
2014,08,04,07,54,14.30
2014,08,04,07,55,14.30
2014,08,04,07,56,14.40
2014,08,04,07,57,14.40
2014,08,04,07,58,14.40
2014,08,04,07,59,14.50
2014,08,04,08,00,14.50
2014,08,04,08,01,14.60
2014,08,04,08,02,14.70
2014,08,04,08,03,14.90
2014,08,04,08,04,15.00
2014,08,04,08,05,15.00
2014,08,04,08,06,15.20
2014,08,04,08,07,15.30
2014,08,04,08,08,15.50
2014,08,04,08,09,15.60
2014,08,04,08,10,15.80
2014,08,04,08,11,15.90
2014,08,04,08,12,16.00
2014,08,04,08,13,16.20
2014,08,04,08,14,16.30
2014,08,04,08,15,16.40
2014,08,04,08,16,16.50
2014,08,04,08,17,16.60
2014,08,04,08,18,16.70
2014,08,04,08,19,16.80
2014,08,04,08,20,16.90
2014,08,04,08,21,17.00
2014,08,04,08,22,17.10
2014,08,04,08,23,17.10
2014,08,04,08,24,17.20
2014,08,04,08,25,17.30
2014,08,04,08,26,17.40
2014,08,04,08,27,17.40
2014,08,04,08,28,17.50
2014,08,04,08,29,17.60
2014,08,04,08,30,17.70
2014,08,04,08,31,17.80
2014,08,04,08,32,17.80
2014,08,04,08,33,17.90
2014,08,04,08,34,18.00
2014,08,04,08,35,18.00
2014,08,04,08,36,18.10
2014,08,04,08,37,18.10
2014,08,04,08,38,18.20
2014,08,04,08,39,18.20
2014,08,04,08,40,18.20
2014,08,04,08,41,18.30
2014,08,04,08,42,18.30
2014,08,04,08,43,18.40
2014,08,04,08,44,18.50
2014,08,04,08,45,18.50
2014,08,04,08,46,18.60
2014,08,04,08,47,18.70
2014,08,04,08,48,18.80
2014,08,04,08,49,18.80
2014,08,04,08,50,18.90
2014,08,04,08,51,19.00
2014,08,04,08,52,19.10
2014,08,04,08,53,19.20
2014,08,04,08,54,19.20
2014,08,04,08,55,19.30
2014,08,04,08,56,19.40
2014,08,04,08,57,19.40
2014,08,04,08,58,19.50
2014,08,04,08,59,19.60
2014,08,04,09,00,19.70
2014,08,04,09,01,19.80
2014,08,04,09,02,19.80
2014,08,04,09,03,19.90
2014,08,04,09,04,20.00
2014,08,04,09,05,20.00
2014,08,04,09,06,20.10
2014,08,04,09,07,20.10
2014,08,04,09,08,20.10
2014,08,04,09,09,20.20
2014,08,04,09,10,20.20
2014,08,04,09,11,20.30
2014,08,04,09,12,20.40
2014,08,04,09,13,20.40
2014,08,04,09,14,20.50
2014,08,04,09,15,20.50
2014,08,04,09,16,20.60
2014,08,04,09,17,20.70
2014,08,04,09,18,20.80
2014,08,04,09,19,20.90
2014,08,04,09,20,21.00
2014,08,04,09,21,21.10
2014,08,04,09,22,21.20
2014,08,04,09,23,21.30
2014,08,04,09,24,21.30
2014,08,04,09,25,21.40
2014,08,04,09,26,21.50
2014,08,04,09,27,21.60
2014,08,04,09,28,21.70
2014,08,04,09,29,21.80
2014,08,04,09,30,21.90
2014,08,04,09,31,22.00
2014,08,04,09,32,22.10
2014,08,04,09,33,22.20
2014,08,04,09,34,22.30
2014,08,04,09,35,22.50
2014,08,04,09,36,22.60
2014,08,04,09,37,22.70
2014,08,04,09,38,22.80
2014,08,04,09,39,22.90
2014,08,04,09,40,23.00
2014,08,04,09,41,23.10
2014,08,04,09,42,23.20
2014,08,04,09,43,23.20
2014,08,04,09,44,23.30
2014,08,04,09,45,23.40
2014,08,04,09,46,23.40
2014,08,04,09,47,23.50
2014,08,04,09,48,23.50
2014,08,04,09,49,23.60
2014,08,04,09,50,23.60
2014,08,04,09,51,23.70
2014,08,04,09,52,23.70
2014,08,04,09,53,23.70
2014,08,04,09,54,23.70
2014,08,04,09,55,23.70
2014,08,04,09,56,23.80
2014,08,04,09,57,23.80
2014,08,04,09,58,23.90
2014,08,04,09,59,23.90
2014,08,04,10,00,24.00
2014,08,04,10,01,24.00
2014,08,04,10,02,24.00
2014,08,04,10,03,24.10
2014,08,04,10,04,24.10
2014,08,04,10,05,24.20
2014,08,04,10,06,24.20
2014,08,04,10,07,24.30
2014,08,04,10,08,24.30
2014,08,04,10,09,24.40
2014,08,04,10,10,24.40
2014,08,04,10,11,24.40
2014,08,04,10,12,24.40
2014,08,04,10,13,24.50
2014,08,04,10,14,24.50
2014,08,04,10,15,24.60
2014,08,04,10,16,24.60
2014,08,04,10,17,24.70
2014,08,04,10,18,24.70
2014,08,04,10,19,24.80
2014,08,04,10,20,24.80
2014,08,04,10,21,24.90
2014,08,04,10,22,25.00
2014,08,04,10,23,25.10
2014,08,04,10,24,25.20
2014,08,04,10,25,25.20
2014,08,04,10,26,25.30
2014,08,04,10,27,25.40
2014,08,04,10,28,25.50
2014,08,04,10,29,25.50
2014,08,04,10,30,25.60
2014,08,04,10,31,25.50
2014,08,04,10,32,25.50
2014,08,04,10,33,25.50
2014,08,04,10,34,25.50
2014,08,04,10,35,25.50
2014,08,04,10,36,25.50
2014,08,04,10,37,25.60
2014,08,04,10,38,25.60
2014,08,04,10,39,25.70
2014,08,04,10,40,25.70
2014,08,04,10,41,25.80
2014,08,04,10,42,25.90
2014,08,04,10,43,25.90
2014,08,04,10,44,25.90
2014,08,04,10,45,25.90
2014,08,04,10,46,25.90
2014,08,04,10,47,25.90
2014,08,04,10,48,25.90
2014,08,04,10,49,25.90
2014,08,04,10,50,25.90
2014,08,04,10,51,25.90
2014,08,04,10,52,25.90
2014,08,04,10,53,25.90
2014,08,04,10,54,26.00
2014,08,04,10,55,26.10
2014,08,04,10,56,26.10
2014,08,04,10,57,26.10
2014,08,04,10,58,26.20
2014,08,04,10,59,26.20
2014,08,04,11,00,26.20
2014,08,04,11,01,26.20
2014,08,04,11,02,26.30
2014,08,04,11,03,26.30
2014,08,04,11,04,26.30
2014,08,04,11,05,26.30
2014,08,04,11,06,26.30
2014,08,04,11,07,26.40
2014,08,04,11,08,26.40
2014,08,04,11,09,26.50
2014,08,04,11,10,26.50
2014,08,04,11,11,26.60
2014,08,04,11,12,26.70
2014,08,04,11,13,26.70
2014,08,04,11,14,26.80
2014,08,04,11,15,26.90
2014,08,04,11,16,27.00
2014,08,04,11,17,27.10
2014,08,04,11,18,27.20
2014,08,04,11,19,27.30
2014,08,04,11,20,27.40
2014,08,04,11,21,27.40
2014,08,04,11,22,27.50
2014,08,04,11,23,27.50
2014,08,04,11,24,27.50
2014,08,04,11,25,27.50
2014,08,04,11,26,27.50
2014,08,04,11,27,27.40
2014,08,04,11,28,27.40
2014,08,04,11,29,27.40
2014,08,04,11,30,27.40
2014,08,04,11,31,27.40
2014,08,04,11,32,27.40
2014,08,04,11,33,27.40
2014,08,04,11,34,27.50
2014,08,04,11,35,27.50
2014,08,04,11,36,27.60
2014,08,04,11,37,27.60
2014,08,04,11,38,27.70
2014,08,04,11,39,27.80
2014,08,04,11,40,27.80
2014,08,04,11,41,27.80
2014,08,04,11,42,27.80
2014,08,04,11,43,27.80
2014,08,04,11,44,27.80
2014,08,04,11,45,27.80
2014,08,04,11,46,27.90
2014,08,04,11,47,27.90
2014,08,04,11,48,27.90
2014,08,04,11,49,27.90
2014,08,04,11,50,27.90
2014,08,04,11,51,28.00
2014,08,04,11,52,28.00
2014,08,04,11,53,28.10
2014,08,04,11,54,28.20
2014,08,04,11,55,28.30
2014,08,04,11,56,28.40
2014,08,04,11,57,28.50
2014,08,04,11,58,28.60
2014,08,04,11,59,28.60
2014,08,04,12,00,28.70
2014,08,04,12,01,28.70
2014,08,04,12,02,28.70
2014,08,04,12,03,28.70
2014,08,04,12,04,28.60
2014,08,04,12,05,28.60
2014,08,04,12,06,28.60
2014,08,04,12,07,28.60
2014,08,04,12,08,28.70
2014,08,04,12,09,28.70
2014,08,04,12,10,28.80
2014,08,04,12,11,28.90
2014,08,04,12,12,29.00
2014,08,04,12,13,29.00
2014,08,04,12,14,28.90
2014,08,04,12,15,28.90
2014,08,04,12,16,28.80
2014,08,04,12,17,28.80
2014,08,04,12,18,28.80
2014,08,04,12,19,28.90
2014,08,04,12,20,29.00
2014,08,04,12,21,29.00
2014,08,04,12,22,29.10
2014,08,04,12,23,29.20
2014,08,04,12,24,29.20
2014,08,04,12,25,29.20
2014,08,04,12,26,29.20
2014,08,04,12,27,29.20
2014,08,04,12,28,29.30
2014,08,04,12,29,29.30
2014,08,04,12,30,29.30
2014,08,04,12,31,29.40
2014,08,04,12,32,29.40
2014,08,04,12,33,29.50
2014,08,04,12,34,29.50
2014,08,04,12,35,29.50
2014,08,04,12,36,29.50
2014,08,04,12,37,29.50
2014,08,04,12,38,29.40
2014,08,04,12,39,29.40
2014,08,04,12,40,29.40
2014,08,04,12,41,29.40
2014,08,04,12,42,29.50
2014,08,04,12,43,29.50
2014,08,04,12,44,29.60
2014,08,04,12,45,29.70
2014,08,04,12,46,29.80
2014,08,04,12,47,29.90
2014,08,04,12,48,30.00
2014,08,04,12,49,30.10
2014,08,04,12,50,30.20
2014,08,04,12,51,30.30
2014,08,04,12,52,30.30
2014,08,04,12,53,30.20
2014,08,04,12,54,30.20
2014,08,04,12,55,30.20
2014,08,04,12,56,30.20
2014,08,04,12,57,30.30
2014,08,04,12,58,30.30
2014,08,04,12,59,30.30
2014,08,04,13,00,30.20
2014,08,04,13,01,30.10
2014,08,04,13,02,30.10
2014,08,04,13,03,30.10
2014,08,04,13,04,30.10
2014,08,04,13,05,30.10
2014,08,04,13,06,30.10
2014,08,04,13,07,30.20
2014,08,04,13,08,30.30
2014,08,04,13,09,30.30
2014,08,04,13,10,30.40
2014,08,04,13,11,30.60
2014,08,04,13,12,30.70
2014,08,04,13,13,30.80
2014,08,04,13,14,30.90
2014,08,04,13,15,30.90
2014,08,04,13,16,30.90
2014,08,04,13,17,31.00
2014,08,04,13,18,31.00
2014,08,04,13,19,31.10
2014,08,04,13,20,31.20
2014,08,04,13,21,31.20
2014,08,04,13,22,31.20
2014,08,04,13,23,31.20
2014,08,04,13,24,31.20
2014,08,04,13,25,31.20
2014,08,04,13,26,31.20
2014,08,04,13,27,31.10
2014,08,04,13,28,31.10
2014,08,04,13,29,31.10
2014,08,04,13,30,31.00
2014,08,04,13,31,31.00
2014,08,04,13,32,30.90
2014,08,04,13,33,30.90
2014,08,04,13,34,31.00
2014,08,04,13,35,31.00
2014,08,04,13,36,31.10
2014,08,04,13,37,31.10
2014,08,04,13,38,31.20
2014,08,04,13,39,31.20
2014,08,04,13,40,31.30
2014,08,04,13,41,31.30
2014,08,04,13,42,31.20
2014,08,04,13,43,31.10
2014,08,04,13,44,31.00
2014,08,04,13,45,30.90
2014,08,04,13,46,30.90
2014,08,04,13,47,30.90
2014,08,04,13,48,30.90
2014,08,04,13,49,30.90
2014,08,04,13,50,30.90
2014,08,04,13,51,31.00
2014,08,04,13,52,31.00
2014,08,04,13,53,31.00
2014,08,04,13,54,31.10
2014,08,04,13,55,31.10
2014,08,04,13,56,31.10
2014,08,04,13,57,31.10
2014,08,04,13,58,31.10
2014,08,04,13,59,31.10
2014,08,04,14,00,31.10
2014,08,04,14,01,31.10
2014,08,04,14,02,31.10
2014,08,04,14,03,31.00
2014,08,04,14,04,30.90
2014,08,04,14,05,31.00
2014,08,04,14,06,30.90
2014,08,04,14,07,31.00
2014,08,04,14,08,31.00
2014,08,04,14,09,31.10
2014,08,04,14,10,31.10
2014,08,04,14,11,31.20
2014,08,04,14,12,31.30
2014,08,04,14,13,31.40
2014,08,04,14,14,31.40
2014,08,04,14,15,31.50
2014,08,04,14,16,31.60
2014,08,04,14,17,31.70
2014,08,04,14,18,31.70
2014,08,04,14,19,31.70
2014,08,04,14,20,31.70
2014,08,04,14,21,31.60
2014,08,04,14,22,31.60
2014,08,04,14,23,31.70
2014,08,04,14,24,31.70
2014,08,04,14,25,31.80
2014,08,04,14,26,31.80
2014,08,04,14,27,31.80
2014,08,04,14,28,31.90
2014,08,04,14,29,31.90
2014,08,04,14,30,31.80
2014,08,04,14,31,31.80
2014,08,04,14,32,31.80
2014,08,04,14,33,31.80
2014,08,04,14,34,31.80
2014,08,04,14,35,31.70
2014,08,04,14,36,31.70
2014,08,04,14,37,31.70
2014,08,04,14,38,31.70
2014,08,04,14,39,31.60
2014,08,04,14,40,31.60
2014,08,04,14,41,31.60
2014,08,04,14,42,31.60
2014,08,04,14,43,31.70
2014,08,04,14,44,31.70
2014,08,04,14,45,31.70
2014,08,04,14,46,31.80
2014,08,04,14,47,31.80
2014,08,04,14,48,31.90
2014,08,04,14,49,31.90
2014,08,04,14,50,31.90
2014,08,04,14,51,31.90
2014,08,04,14,52,31.90
2014,08,04,14,53,31.90
2014,08,04,14,54,32.00
2014,08,04,14,55,32.00
2014,08,04,14,56,32.10
2014,08,04,14,57,32.20
2014,08,04,14,58,32.20
2014,08,04,14,59,32.30
2014,08,04,15,00,32.30
2014,08,04,15,01,32.30
2014,08,04,15,02,32.30
2014,08,04,15,03,32.30
2014,08,04,15,04,32.30
2014,08,04,15,05,32.30
2014,08,04,15,06,32.30
2014,08,04,15,07,32.40
2014,08,04,15,08,32.40
2014,08,04,15,09,32.40
2014,08,04,15,10,32.40
2014,08,04,15,11,32.40
2014,08,04,15,12,32.40
2014,08,04,15,13,32.40
2014,08,04,15,14,32.30
2014,08,04,15,15,32.30
2014,08,04,15,16,32.30
2014,08,04,15,17,32.30
2014,08,04,15,18,32.30
2014,08,04,15,19,32.30
2014,08,04,15,20,32.30
2014,08,04,15,21,32.30
2014,08,04,15,22,32.30
2014,08,04,15,23,32.30
2014,08,04,15,24,32.30
2014,08,04,15,25,32.40
2014,08,04,15,26,32.50
2014,08,04,15,27,32.60
2014,08,04,15,28,32.60
2014,08,04,15,29,32.60
2014,08,04,15,30,32.60
2014,08,04,15,31,32.70
2014,08,04,15,32,32.70
2014,08,04,15,33,32.80
2014,08,04,15,34,33.00
2014,08,04,15,35,33.20
2014,08,04,15,36,33.30
2014,08,04,15,37,33.40
2014,08,04,15,38,33.50
2014,08,04,15,39,33.60
2014,08,04,15,40,33.70
2014,08,04,15,41,33.80
2014,08,04,15,42,33.80
2014,08,04,15,43,33.70
2014,08,04,15,44,33.70
2014,08,04,15,45,33.70
2014,08,04,15,46,33.70
2014,08,04,15,47,33.80
2014,08,04,15,48,33.80
2014,08,04,15,49,33.80
2014,08,04,15,50,33.80
2014,08,04,15,51,33.80
2014,08,04,15,52,33.80
2014,08,04,15,53,33.80
2014,08,04,15,54,33.80
2014,08,04,15,55,33.80
2014,08,04,15,56,33.90
2014,08,04,15,57,33.80
2014,08,04,15,58,33.80
2014,08,04,15,59,33.70
2014,08,04,16,00,33.80
2014,08,04,16,01,33.80
2014,08,04,16,02,33.90
2014,08,04,16,03,33.90
2014,08,04,16,04,33.90
2014,08,04,16,05,34.00
2014,08,04,16,06,34.10
2014,08,04,16,07,34.10
2014,08,04,16,08,34.20
2014,08,04,16,09,34.20
2014,08,04,16,10,34.20
2014,08,04,16,11,34.10
2014,08,04,16,12,34.00
2014,08,04,16,13,33.90
2014,08,04,16,14,33.90
2014,08,04,16,15,33.90
2014,08,04,16,16,33.90
2014,08,04,16,17,33.80
2014,08,04,16,18,33.60
2014,08,04,16,19,33.60
2014,08,04,16,20,33.60
2014,08,04,16,21,33.70
2014,08,04,16,22,33.70
2014,08,04,16,23,33.80
2014,08,04,16,24,33.70
2014,08,04,16,25,33.70
2014,08,04,16,26,33.80
2014,08,04,16,27,33.80
2014,08,04,16,28,33.90
2014,08,04,16,29,34.00
2014,08,04,16,30,34.10
2014,08,04,16,31,34.10
2014,08,04,16,32,34.10
2014,08,04,16,33,34.10
2014,08,04,16,34,34.00
2014,08,04,16,35,34.00
2014,08,04,16,36,34.00
2014,08,04,16,37,34.00
2014,08,04,16,38,34.00
2014,08,04,16,39,34.00
2014,08,04,16,40,34.00
2014,08,04,16,41,34.00
2014,08,04,16,42,33.90
2014,08,04,16,43,33.90
2014,08,04,16,44,33.90
2014,08,04,16,45,33.90
2014,08,04,16,46,33.90
2014,08,04,16,47,33.90
2014,08,04,16,48,33.90
2014,08,04,16,49,34.00
2014,08,04,16,50,34.00
2014,08,04,16,51,34.10
2014,08,04,16,52,34.10
2014,08,04,16,53,34.00
2014,08,04,16,54,33.90
2014,08,04,16,55,33.90
2014,08,04,16,56,33.80
2014,08,04,16,57,33.80
2014,08,04,16,58,33.80
2014,08,04,16,59,33.80
2014,08,04,17,00,33.80
2014,08,04,17,01,33.80
2014,08,04,17,02,33.90
2014,08,04,17,03,33.80
2014,08,04,17,04,33.80
2014,08,04,17,05,33.80
2014,08,04,17,06,33.80
2014,08,04,17,07,33.70
2014,08,04,17,08,33.70
2014,08,04,17,09,33.70
2014,08,04,17,10,33.60
2014,08,04,17,11,33.60
2014,08,04,17,12,33.70
2014,08,04,17,13,33.70
2014,08,04,17,14,33.70
2014,08,04,17,15,33.70
2014,08,04,17,16,33.70
2014,08,04,17,17,33.60
2014,08,04,17,18,33.60
2014,08,04,17,19,33.60